SCP
0 0 0 0 0 0 0 0 0 0 0 0 0 0 0 0 0 0 0 0 0 0 0 0 0 0 0 0 0 0 0 0 0 0 0 0 0 0
0 0 0 0 0 0 0 0 0 0 0 0 0 0 0 0 0 0 0 0 0 0 0 0 0 0 0 0 0 0 0 0 0 0 0 0 0 0
0 0 0 0 0 0 0 0 0 0 0 0 0 0 0 0 0 0 0 0 0 0 0 0 0 0 0 0 0 0 0 0 0 0 0 0 0 0
-0 -0 -0 0 0 0 0 0 0 0 0 0 0 0 0 0 0 0 0 0 0 0 0 0 0 0 0 0 0 0 0 0 0 0 0 0 0 0
-0 -0 -0 0 0 0 0 0 0 0 0 0 0 0 0 0 0 0 0 0 0 0 0 0 0 0 0 0 0 0 0 0 0 0 0 0 0 0
0 0 0 0 0 0 0 0 0 0 0 0 0 0 0 0 0 0 0 0 0 0 0 0 0 0 0 0 0 0 0 0 0 0 0 0 0 0
0 0 0 0 0 0 0 0 0 0 0 0 0 0 0 0 0 0 0 0 0 0 0 0 0 0 0 0 0 0 0 0 0 0 0 0 0 0
0 0 0 0 0 0 0 0 0 0 0 0 0 0 0 0 0 0 0 -0 0 0 -0 -0 -0 0 0 0 0 0 0 0 0 0 0 0 0 0
0 0 0 0 0 0 0 0 0 0 0 0 0 0 0 0 -0 0 0 0 0 -0 -0 -0 -0 0 0 0 0 0 0 0 0 0 0 0 0 0
0 0 0 0 0 0 0 0 0 0 0 0 0 0 0 0 0 0 0 0 0 0 0 0 0 0 0 0 0 0 0 0 0 0 0 0 0 0
0 0 0 0 0 0 0 0 0 0 0 0 0 0 0 0 0 0 0 0 0 0 0 0 0 0 0 0 0 0 -0 0 0 0 0 0 0 0
0 0 0 0 0 0 0 0 0 0 0 0 0 0 0 0 0 0 0 0 0 0 0 0 0 0 0 0 -0 -0 -0 -0 -0 0 0 0 0 0
0 0 0 0 0 0 0 0 0 0 0 0 0 0 0 0 0 0 0 0 0 0 0 0 0 0 0 0 0 0 0 -0 -0 -0 -0 -0 0 0
0 0 0 0 0 0 0 0 0 0 0 0 0 -0 -0 0 0 0 0 0 0 0 -0 -0 0 0 0 0 0 0 0 0 0 0 -0 0 0 0
0 0 0 0 0 0 0 0 0 0 0 0 -0 0 0 0 0 0 0 0 0 0 0 0 0 0 0 0 0 0 0 0 0 0 0 0 0 -0
0 0 0 0 0 0 0 0 0 0 0 0 -0 -0 0 0 0 0 0 0 0 -0 0 0 0 0 0 0 0 0 0 0 0 0 0 0 0 0
0 0 0 0 0 0 0 0 0 0 0 0 -0 -0 -0 -0 0 0 0 0 0 0 0 -0 -0 0 0 0 0 0 0 0 0 0 0 0 0 0
0 0 0 0 0 0 0 0 0 0 0 0 -0 -0 -0 0 0 0 0 0 0 0 -0 0 0 0 0 0 0 0 0 0 0 0 0 0 0 -0
0 0 0 0 0 0 0 -0 0 0 0 0 -0 -0 -0 0 0 0 0 0 0 0 -0 -0 0 0 -0 -0 0 0 0 0 0 0 0 0 0 -0
0 0 0 0 0 0 -0 0 -0 0 0 -0 -0 -0 -0 0 0 0 0 0 0 0 0 0 -0 0 0 0 0 0 0 0 0 0 0 0 0 0
0 0 0 0 0 0 -0 -0 0 0 0 -0 -0 -0 -0 0 0 0 0 0 0 0 0 0 0 0 0 0 0 0 0 0 0 0 0 0 0 -0
0 0 0 0 0 -0 -0 0 0 0 -0 -0 -0 -0 0 0 0 0 0 0 0 0 0 0 0 0 0 0 0 -0 0 0 0 0 0 -0 -0 -0
0 0 0 0 0 0 -0 0 0 0 0 -0 -0 -0 0 0 0 0 0 0 0 0 0 0 0 -0 0 0 0 -0 0 0 0 0 0 -0 -0 -0
Wind_Speed_500mb
18 23 21 24 28 32 33 28 27 28 25 23 22 26 31 33 35 35 34 37 37 38 39 41 44 48 50 53 50 44 41 45 47 44 40 38 39 39
12 18 23 26 27 28 29 31 29 24 28 29 28 31 38 38 33 35 37 38 37 38 39 42 43 46 51 53 52 50 48 48 49 49 49 46 44 42
16 20 23 26 23 26 31 26 22 24 32 36 36 38 40 36 38 41 39 37 39 47 57 61 63 59 58 56 55 54 50 48 49 50 49 50 47 44
21 23 24 26 24 26 30 36 33 34 36 41 44 44 37 39 44 49 46 41 47 48 60 58 54 53 53 54 54 54 53 53 52 50 49 50 49 46
17 20 23 27 30 30 37 38 29 31 33 39 49 46 43 39 42 47 46 54 51 45 45 45 47 41 39 44 46 48 49 48 49 53 53 51 52 52
22 25 30 33 36 41 38 42 34 38 35 40 49 51 45 42 40 52 61 54 55 43 33 40 41 38 37 38 38 41 41 45 47 47 50 56 57 55
28 33 38 40 46 44 46 44 43 38 40 45 49 51 47 44 47 49 59 58 53 38 35 39 36 31 26 30 34 36 40 42 45 47 46 45 45 43
46 47 50 56 55 51 46 44 45 44 40 41 48 47 42 40 40 53 52 46 52 35 44 39 32 27 24 23 31 32 28 35 38 36 39 43 42 40
47 36 39 43 37 37 39 41 39 36 38 46 44 42 37 43 52 54 50 48 46 41 37 40 27 28 32 25 32 16 16 21 21 23 26 31 37 38
31 32 40 41 37 32 38 37 30 33 40 40 37 39 48 55 62 52 48 44 38 34 32 37 27 32 27 24 26 12 20 21 23 23 23 23 30 32
32 43 39 37 32 30 36 35 37 35 37 40 41 48 53 48 45 38 35 38 46 45 33 27 29 41 28 21 9 12 31 30 28 25 23 17 19 19
40 37 34 30 27 36 45 36 34 33 34 38 37 37 39 35 29 33 34 35 38 42 23 35 46 34 29 5 24 37 29 29 27 29 30 32 32 32
24 21 22 28 37 45 47 32 35 45 33 38 39 30 33 29 31 35 35 35 39 42 43 35 42 40 32 50 52 37 30 34 26 26 35 36 44 41
25 23 27 37 44 48 37 42 44 29 32 32 34 30 36 39 39 36 32 31 31 32 34 25 33 34 36 44 43 43 38 27 19 16 19 26 34 36
25 27 34 44 45 36 35 33 23 26 27 31 34 35 35 39 38 33 32 33 33 32 31 24 27 32 33 42 51 47 46 34 17 20 19 22 21 23
24 27 39 35 36 33 30 23 24 27 28 35 40 35 37 41 37 39 37 36 40 35 32 30 23 31 36 35 39 38 35 23 25 25 25 25 16 20
27 23 26 30 27 32 29 27 27 31 30 36 33 34 38 41 38 38 37 42 38 42 44 29 20 23 27 27 30 22 35 21 24 27 25 26 23 20
18 24 26 28 33 35 35 38 32 30 33 33 34 37 39 40 42 40 45 36 39 38 35 27 28 28 26 24 27 26 28 26 29 27 24 23 22 19
18 24 28 28 35 33 35 35 32 37 34 30 36 37 41 43 38 44 39 46 37 33 36 33 31 28 26 29 26 32 31 30 24 25 24 16 18 21
21 27 29 27 33 35 37 40 35 45 38 30 36 37 42 42 46 43 40 40 40 44 35 34 34 27 31 35 38 34 32 34 27 24 22 18 22 20
24 29 27 30 34 34 35 36 42 37 39 35 39 43 46 47 50 47 46 45 42 38 38 34 32 37 36 36 31 32 24 31 27 26 18 17 14 7
26 29 26 33 34 33 34 38 43 25 34 40 42 46 50 55 57 54 50 51 48 40 42 43 35 31 28 25 31 31 27 25 22 25 13 8 9 11
27 29 26 34 39 33 31 35 44 35 37 43 48 52 56 60 59 59 56 43 43 44 41 41 36 34 26 28 26 27 22 24 11 12 24 12 9 11
Wind_Direction_500mb
78 44 35 28 26 25 26 27 18 3 353 343 341 335 343 339 332 331 324 317 315 303 295 287 282 277 275 276 277 272 274 273 272 275 280 287 293 298
48 21 13 6 5 1 355 357 3 354 340 337 329 326 334 334 328 331 324 321 314 304 297 294 290 287 281 277 275 271 268 266 265 269 275 281 287 294
14 3 353 349 340 332 334 328 326 326 327 327 329 322 325 324 326 328 327 317 307 304 301 296 290 285 280 278 274 272 269 265 264 266 268 271 277 284
345 345 339 347 343 337 328 317 307 306 307 315 322 321 314 321 323 328 323 318 308 303 298 304 296 284 276 274 271 269 268 267 266 266 266 268 270 276
344 346 346 342 339 333 332 330 305 301 299 305 321 324 316 316 314 322 324 323 312 307 308 306 305 290 275 274 272 269 268 270 269 265 262 263 266 274
316 316 317 318 320 321 319 318 317 313 305 308 314 319 316 316 315 320 321 324 325 319 315 307 308 291 280 279 276 276 273 271 275 272 266 259 262 268
313 308 309 305 311 308 311 306 310 308 310 312 312 315 314 314 318 321 322 322 327 328 320 324 319 313 290 292 292 284 274 275 276 274 265 259 257 261
308 313 310 304 306 303 309 308 301 304 308 310 312 312 312 313 317 318 316 320 322 328 321 322 324 323 313 299 287 286 284 287 282 274 263 253 253 257
311 312 323 321 318 315 325 325 316 311 314 319 307 308 305 314 317 318 319 318 317 321 320 320 327 321 322 316 308 296 299 316 298 277 270 260 252 249
315 313 324 323 321 326 335 328 322 319 316 318 312 312 315 315 318 317 317 316 316 321 317 319 324 319 325 317 303 281 296 303 308 302 289 267 250 240
318 320 324 324 326 333 331 324 322 322 321 322 320 317 314 317 317 321 319 316 321 329 332 324 325 335 331 323 292 304 316 306 297 283 281 268 260 254
322 324 328 330 332 330 330 327 327 324 328 326 323 324 321 327 330 327 325 315 318 316 327 318 326 331 330 338 312 310 305 304 299 275 264 269 273 272
332 335 328 327 326 326 330 330 326 327 329 330 338 341 352 347 344 340 332 320 313 306 324 312 305 311 302 311 323 333 329 317 285 261 265 265 265 268
334 332 329 326 324 327 330 327 330 333 335 346 351 352 346 344 339 339 338 330 323 323 326 315 293 307 307 306 310 329 338 326 324 293 282 278 278 267
338 334 329 328 330 335 334 337 347 338 343 349 349 346 345 341 347 358 360 341 334 336 331 314 303 303 304 310 309 322 317 322 311 319 300 313 289 286
343 335 336 348 353 348 348 352 354 353 349 348 350 348 351 356 358 351 354 353 346 345 345 340 319 316 298 308 307 310 318 303 310 316 306 305 304 291
343 347 355 358 5 16 14 6 354 353 349 346 353 349 348 346 348 352 348 346 346 344 347 347 331 332 334 334 340 340 320 308 310 315 293 298 295 315
0 1 359 353 359 355 359 359 23 360 2 359 354 349 352 351 350 346 347 343 344 348 349 338 347 340 339 331 344 345 329 322 318 322 307 297 300 302
5 358 353 347 352 348 357 358 347 0 2 1 353 351 349 350 354 355 352 355 345 334 345 334 332 327 331 339 334 337 346 331 328 323 329 303 296 315
5 357 352 347 350 350 358 354 354 349 0 6 360 354 348 347 349 344 344 345 342 354 342 336 331 329 318 312 314 345 328 342 337 323 324 320 317 326
357 355 353 349 351 351 352 351 350 348 3 0 353 353 353 349 345 340 337 335 331 323 318 325 328 328 329 327 310 327 322 324 338 337 311 313 323 306
351 351 349 347 350 347 347 348 348 355 355 355 353 349 347 345 343 339 335 331 329 320 313 309 309 322 319 316 333 325 328 325 327 345 333 299 298 306
346 347 345 341 352 351 346 348 353 359 352 351 349 349 346 344 342 340 335 325 321 317 319 313 307 317 324 317 325 323 328 322 329 326 339 293 305 318
Wind_Speed_850mb
18 23 21 24 28 32 33 28 27 28 25 23 22 26 31 33 35 35 34 37 37 38 39 41 44 48 50 53 50 44 41 45 47 44 40 38 39 39
12 18 23 26 27 28 29 31 29 24 28 29 28 31 38 38 33 35 37 38 37 38 39 42 43 46 51 53 52 50 48 48 49 49 49 46 44 42
16 20 23 26 23 26 31 26 22 24 32 36 36 38 40 36 38 41 39 37 39 47 57 61 63 59 58 56 55 54 50 48 49 50 49 50 47 44
21 23 24 26 24 26 30 36 33 34 36 41 44 44 37 39 44 49 46 41 47 48 60 58 54 53 53 54 54 54 53 53 52 50 49 50 49 46
17 20 23 27 30 30 37 38 29 31 33 39 49 46 43 39 42 47 46 54 51 45 45 45 47 41 39 44 46 48 49 48 49 53 53 51 52 52
22 25 30 33 36 41 38 42 34 38 35 40 49 51 45 42 40 52 61 54 55 43 33 40 41 38 37 38 38 41 41 45 47 47 50 56 57 55
28 33 38 40 46 44 46 44 43 38 40 45 49 51 47 44 47 49 59 58 53 38 35 39 36 31 26 30 34 36 40 42 45 47 46 45 45 43
46 47 50 56 55 51 46 44 45 44 40 41 48 47 42 40 40 53 52 46 52 35 44 39 32 27 24 23 31 32 28 35 38 36 39 43 42 40
47 36 39 43 37 37 39 41 39 36 38 46 44 42 37 43 52 54 50 48 46 41 37 40 27 28 32 25 32 16 16 21 21 23 26 31 37 38
31 32 40 41 37 32 38 37 30 33 40 40 37 39 48 55 62 52 48 44 38 34 32 37 27 32 27 24 26 12 20 21 23 23 23 23 30 32
32 43 39 37 32 30 36 35 37 35 37 40 41 48 53 48 45 38 35 38 46 45 33 27 29 41 28 21 9 12 31 30 28 25 23 17 19 19
40 37 34 30 27 36 45 36 34 33 34 38 37 37 39 35 29 33 34 35 38 42 23 35 46 34 29 5 24 37 29 29 27 29 30 32 32 32
24 21 22 28 37 45 47 32 35 45 33 38 39 30 33 29 31 35 35 35 39 42 43 35 42 40 32 50 52 37 30 34 26 26 35 36 44 41
25 23 27 37 44 48 37 42 44 29 32 32 34 30 36 39 39 36 32 31 31 32 34 25 33 34 36 44 43 43 38 27 19 16 19 26 34 36
25 27 34 44 45 36 35 33 23 26 27 31 34 35 35 39 38 33 32 33 33 32 31 24 27 32 33 42 51 47 46 34 17 20 19 22 21 23
24 27 39 35 36 33 30 23 24 27 28 35 40 35 37 41 37 39 37 36 40 35 32 30 23 31 36 35 39 38 35 23 25 25 25 25 16 20
27 23 26 30 27 32 29 27 27 31 30 36 33 34 38 41 38 38 37 42 38 42 44 29 20 23 27 27 30 22 35 21 24 27 25 26 23 20
18 24 26 28 33 35 35 38 32 30 33 33 34 37 39 40 42 40 45 36 39 38 35 27 28 28 26 24 27 26 28 26 29 27 24 23 22 19
18 24 28 28 35 33 35 35 32 37 34 30 36 37 41 43 38 44 39 46 37 33 36 33 31 28 26 29 26 32 31 30 24 25 24 16 18 21
21 27 29 27 33 35 37 40 35 45 38 30 36 37 42 42 46 43 40 40 40 44 35 34 34 27 31 35 38 34 32 34 27 24 22 18 22 20
24 29 27 30 34 34 35 36 42 37 39 35 39 43 46 47 50 47 46 45 42 38 38 34 32 37 36 36 31 32 24 31 27 26 18 17 14 7
26 29 26 33 34 33 34 38 43 25 34 40 42 46 50 55 57 54 50 51 48 40 42 43 35 31 28 25 31 31 27 25 22 25 13 8 9 11
27 29 26 34 39 33 31 35 44 35 37 43 48 52 56 60 59 59 56 43 43 44 41 41 36 34 26 28 26 27 22 24 11 12 24 12 9 11
Wind_Direction_850mb
78 44 35 28 26 25 26 27 18 3 353 343 341 335 343 339 332 331 324 317 315 303 295 287 282 277 275 276 277 272 274 273 272 275 280 287 293 298
48 21 13 6 5 1 355 357 3 354 340 337 329 326 334 334 328 331 324 321 314 304 297 294 290 287 281 277 275 271 268 266 265 269 275 281 287 294
14 3 353 349 340 332 334 328 326 326 327 327 329 322 325 324 326 328 327 317 307 304 301 296 290 285 280 278 274 272 269 265 264 266 268 271 277 284
345 345 339 347 343 337 328 317 307 306 307 315 322 321 314 321 323 328 323 318 308 303 298 304 296 284 276 274 271 269 268 267 266 266 266 268 270 276
344 346 346 342 339 333 332 330 305 301 299 305 321 324 316 316 314 322 324 323 312 307 308 306 305 290 275 274 272 269 268 270 269 265 262 263 266 274
316 316 317 318 320 321 319 318 317 313 305 308 314 319 316 316 315 320 321 324 325 319 315 307 308 291 280 279 276 276 273 271 275 272 266 259 262 268
313 308 309 305 311 308 311 306 310 308 310 312 312 315 314 314 318 321 322 322 327 328 320 324 319 313 290 292 292 284 274 275 276 274 265 259 257 261
308 313 310 304 306 303 309 308 301 304 308 310 312 312 312 313 317 318 316 320 322 328 321 322 324 323 313 299 287 286 284 287 282 274 263 253 253 257
311 312 323 321 318 315 325 325 316 311 314 319 307 308 305 314 317 318 319 318 317 321 320 320 327 321 322 316 308 296 299 316 298 277 270 260 252 249
315 313 324 323 321 326 335 328 322 319 316 318 312 312 315 315 318 317 317 316 316 321 317 319 324 319 325 317 303 281 296 303 308 302 289 267 250 240
318 320 324 324 326 333 331 324 322 322 321 322 320 317 314 317 317 321 319 316 321 329 332 324 325 335 331 323 292 304 316 306 297 283 281 268 260 254
322 324 328 330 332 330 330 327 327 324 328 326 323 324 321 327 330 327 325 315 318 316 327 318 326 331 330 338 312 310 305 304 299 275 264 269 273 272
332 335 328 327 326 326 330 330 326 327 329 330 338 341 352 347 344 340 332 320 313 306 324 312 305 311 302 311 323 333 329 317 285 261 265 265 265 268
334 332 329 326 324 327 330 327 330 333 335 346 351 352 346 344 339 339 338 330 323 323 326 315 293 307 307 306 310 329 338 326 324 293 282 278 278 267
338 334 329 328 330 335 334 337 347 338 343 349 349 346 345 341 347 358 360 341 334 336 331 314 303 303 304 310 309 322 317 322 311 319 300 313 289 286
343 335 336 348 353 348 348 352 354 353 349 348 350 348 351 356 358 351 354 353 346 345 345 340 319 316 298 308 307 310 318 303 310 316 306 305 304 291
343 347 355 358 5 16 14 6 354 353 349 346 353 349 348 346 348 352 348 346 346 344 347 347 331 332 334 334 340 340 320 308 310 315 293 298 295 315
0 1 359 353 359 355 359 359 23 360 2 359 354 349 352 351 350 346 347 343 344 348 349 338 347 340 339 331 344 345 329 322 318 322 307 297 300 302
5 358 353 347 352 348 357 358 347 0 2 1 353 351 349 350 354 355 352 355 345 334 345 334 332 327 331 339 334 337 346 331 328 323 329 303 296 315
5 357 352 347 350 350 358 354 354 349 0 6 360 354 348 347 349 344 344 345 342 354 342 336 331 329 318 312 314 345 328 342 337 323 324 320 317 326
357 355 353 349 351 351 352 351 350 348 3 0 353 353 353 349 345 340 337 335 331 323 318 325 328 328 329 327 310 327 322 324 338 337 311 313 323 306
351 351 349 347 350 347 347 348 348 355 355 355 353 349 347 345 343 339 335 331 329 320 313 309 309 322 319 316 333 325 328 325 327 345 333 299 298 306
346 347 345 341 352 351 346 348 353 359 352 351 349 349 346 344 342 340 335 325 321 317 319 313 307 317 324 317 325 323 328 322 329 326 339 293 305 318